Other Public Products
Issued by NWS Charleston, SC

Current Version | Previous Version | Text Only | Print | Product List | Glossary Off
Versions: 1 2 3 4 5 6 7 8 9 10 11 12 13 14 15 16 17 18 19 20 21 22 23 24 25 26 27 28 29 30 31 32 33 34 35 36 37 38 39 40 41 42 43 44 45 46 47 48 49 50
394 FPUS82 KCHS 200124 OPUCHS TEST...KCHS/KSAV Gateway Observations...TEST National Weather Service Charleston SC 900 PM EDT TUE SEP 19 2017 NOTE: "fair" indicates few or no clouds below 12,000 feet with no significant weather and/or obstructions to visibility. SCZ050-WAZ558-NCZ071-TXZ119-213-PAZ071-DCZ001-FLZ074-172-MI076- NYZ176-178-MAZ016-IL014-TNZ027-NJZ106-GAZ044-MD014-200200- ...Gateway Observations for Charleston International... CITY SKY/WX TMP DP RH WIND PRES REMARKS Chas Airport CLEAR 77 72 84 S5 29.97R Seattle PTSUNNY 61 45 55 SW17G26 29.73S Charlotte PTCLDY 75 68 78 SW5 29.98R Dallas DFW MOCLDY 92 67 43 S13 29.78R HX 95 Dallas Love MOCLDY 92 66 42 S14 29.79R HX 94 Philladelphia CLOUDY 75 64 68 N22G32 29.88R Wash National PTCLDY 77 66 68 NW10 29.91R Baltimore CLOUDY 74 67 78 NW6 29.90R Miami CLOUDY 80 77 90 CALM 29.94R Detroit CLOUDY 69 67 93 E5 29.96R Newark CLOUDY 71 66 84 N15G24 29.89R Laguardia CLOUDY 72 66 81 NE17G26 29.88R J F K CLOUDY 71 65 81 N22G28 29.87S Boston Logan LGT RAIN 63 63 100 N16 29.99F VSB 1 Ft. Lauderdale MOCLDY 82 78 88 SE9 29.93R HX 91 Chicago O`Hare PTCLDY 69 63 81 NE7 29.92R Chicago Midway PTCLDY 70 63 78 E6 29.92R Houston Bush MOCLDY 84 73 69 S9 29.87R HX 90 Houston Hobby PTCLDY 84 74 71 S7 29.88R HX 91 Nashville PTCLDY 72 69 90 CALM 29.96S Atlanta CLOUDY 80 66 62 W3 29.99S $$ GAZ044-118-TXZ119-213-NCZ071-DCZ001-MDZ014-506-PAZ021-071-NJZ106- NYZ176-178-MAZ106-OHZ011-021-055-MIZ076-KYZ091-ILZ014-INZ047- MNZ060-ONZ431-200200- ...Gateway Observations for Savannah International... CITY SKY/WX TMP DP RH WIND PRES REMARKS Savannah Arpt PTCLDY 79 71 76 SE7 29.97R Atlanta CLOUDY 80 66 62 W3 29.99S Charlotte PTCLDY 75 68 78 SW5 29.98R Dallas DFW MOCLDY 92 67 43 S13 29.78R HX 95 Houston Bush MOCLDY 84 73 69 S9 29.87R HX 90 Wash National PTCLDY 77 66 68 NW10 29.91R Wash Dulles PTCLDY 73 67 81 NW6 29.93R Baltimore CLOUDY 74 67 78 NW6 29.90R Philadelphia CLOUDY 75 64 68 N22G32 29.88R Newark CLOUDY 71 66 84 N15G24 29.89R Laguardia CLOUDY 72 66 81 NE17G26 29.88R J F K CLOUDY 71 65 81 N22G28 29.87S Boston LGT RAIN 63 63 100 N16 29.99F VSB 1 Pittsburg MOCLDY 75 61 61 CALM 29.99R Akron CLOUDY 74 63 68 NE5 30.00R Cleveland CLOUDY 75 67 76 E3 29.98R Cincinnati CLEAR 68 68 100 CALM 29.95S Columbus CLOUDY 69 68 98 CALM 29.96S Detroit CLOUDY 69 67 93 E5 29.96R Chicago O`Hare PTCLDY 69 63 81 NE7 29.92R Minneapolis CLOUDY 75 63 66 SE15 29.69S Indianapolis PTCLDY 74 66 76 CALM 29.92R Toronto Canada MOCLDY 73 66 78 NE6 30.01R $$

USA.gov is the U.S. government's official web portal to all federal, state and local government web resources and services.